This is the latest recevied weather packets stored in our database for station/object K8FJG-13. If no packets are shown the sender has not sent any weather packets the latest 1 day(s).
| Time | Temp. | Humidity | Pressure | Rain* | Wind** | Luminosity | Snow |
|---|---|---|---|---|---|---|---|
| 1778035898 | 8.89° C | 97% | 964.2 hPa | - | 0.89 m/s, 331° | - | - |
| 1778035295 | 8.89° C | 97% | 964.1 hPa | - | 0.45 m/s, 345° | - | - |
| 1778034691 | 8.89° C | 97% | 964 hPa | - | 0.89 m/s, 343° | - | - |
| 1778034088 | 8.89° C | 97% | 964.4 hPa | - | 0 m/s | - | - |
| 1778033485 | 8.89° C | 97% | 964.3 hPa | - | 0.89 m/s, 326° | - | - |
| 1778032882 | 8.89° C | 97% | 964.3 hPa | - | 0.45 m/s, 309° | - | - |
| 1778032279 | 8.89° C | 97% | 964.2 hPa | - | 0.45 m/s, 7° | - | - |
| 1778031676 | 8.89° C | 97% | 964.1 hPa | - | 0.45 m/s, 305° | - | - |
| 1778031073 | 8.89° C | 97% | 964.1 hPa | - | 0.45 m/s, 228° | - | - |
| 1778030470 | 8.89° C | 97% | 963.9 hPa | - | 0.89 m/s, 308° | - | - |
| 1778029866 | 8.89° C | 97% | 963.8 hPa | - | 0.45 m/s, 24° | - | - |
| 1778029263 | 8.89° C | 97% | 963.9 hPa | - | 0.45 m/s, 355° | - | - |
| 1778028660 | 8.89° C | 97% | 963.7 hPa | - | 0.45 m/s, 283° | - | - |
| 1778028057 | 8.89° C | 96% | 963.8 hPa | - | 0.45 m/s, 350° | - | - |
| 1778027454 | 8.89° C | 96% | 963.7 hPa | - | 0.45 m/s, 339° | - | - |
| 1778026851 | 8.89° C | 96% | 963.6 hPa | - | 0.45 m/s, 7° | - | - |
| 1778026248 | 8.33° C | 96% | 963.5 hPa | - | 0.45 m/s, 54° | - | - |
| 1778025644 | 8.89° C | 96% | 963.6 hPa | - | 0.89 m/s, 340° | - | - |
| 1778025041 | 8.89° C | 96% | 963.9 hPa | - | 0.45 m/s, 57° | - | - |
| 1778024438 | 8.89° C | 96% | 963.9 hPa | - | 0.45 m/s, 3° | - | - |
| 1778023835 | 8.89° C | 96% | 963.9 hPa | - | 0.45 m/s, 26° | - | - |
| 1778023232 | 8.33° C | 96% | 964.7 hPa | - | 0.89 m/s, 294° | - | - |
| 1778022628 | 8.33° C | 96% | 963.9 hPa | - | 0.89 m/s, 307° | - | - |
| 1778022025 | 8.33° C | 96% | 963.8 hPa | - | 0.89 m/s, 27° | - | - |
| 1778021422 | 8.89° C | 96% | 964.1 hPa | - | 0.89 m/s, 346° | - | - |
* Rain since midnight (hover to see other rain measurements)
** Current wind speed in m/s (hover to see current wind gust speed)